Weather History for Port Angeles, WA

Change the Weather History Date:

Friday, August 30, 2013

  Actual Average Record
Temperature  
Mean Temperature 62 °F -  
Max Temperature 71 °F 67 °F 77 °F (1974)
Min Temperature 55 °F 51 °F 41 °F (1965)
Degree Days  
Heating Degree Days 3    
Growing Degree Days 12 (Base 50)    
Moisture  
Dew Point 55 °F    
Average Humidity 81    
Maximum Humidity 100    
Minimum Humidity 61    
Precipitation  
Precipitation 0.00 in - - ()
Sea Level Pressure  
Sea Level Pressure 30.11 in    
Wind  
Wind Speed 4 mph (WNW)    
Max Wind Speed 8 mph    
Max Gust Speed -    
Visibility 10 miles    
Events      
Averages and records for this station are not official NWS values.
T = Trace of Precipitation, MM = Missing Value Source: NWS Daily Summary

Daily Weather History Graph

Daily Weather History Graph

Search for Another Location

Airport:

Trip Planner

Search our weather history database for the weather conditions in past years. The results will help you decide how hot, cold, wet, or windy it might be!

Date:

Astronomy

Aug. 30, 2013 Rise Set
Actual Time 6:29 AM PDT 7:58 PM PDT
Civil Twilight 5:57 AM PDT 8:30 PM PDT
Nautical Twilight 5:17 AM PDT 9:10 PM PDT
Astronomical Twilight 4:34 AM PDT 9:52 PM PDT
Moon 12:58 AM PDT (8/30) 4:31 PM PDT (8/30)
Length of Visible Light 14h 33m
Length of Day
13h 28m
Waning Crescent, 28% of the Moon is Illuminated
Aug 30
Waning Crescent
Sep 5
New
Sep 12
First Quarter
Sep 19
Full
Sep 26
Last Quarter

Hourly Weather History & Observations

Time (PDT) Temp. Dew Point Humidity Pressure Visibility Wind Dir Wind Speed Gust Speed Precip Events Conditions
12:53 AM 57.0 °F 55.0 °F 93% 29.98 in 10.0 mi SSW 3.5 mph - N/A   Partly Cloudy
1:53 AM 55.0 °F 55.0 °F 100% 30.01 in 9.0 mi South 3.5 mph - N/A   Scattered Clouds
2:53 AM 55.9 °F 54.0 °F 93% 30.03 in 10.0 mi Variable 4.6 mph - N/A   Mostly Cloudy
3:53 AM 57.0 °F 55.0 °F 93% 30.05 in 10.0 mi South 5.8 mph - N/A   Overcast
4:53 AM 57.0 °F 55.9 °F 96% 30.06 in 10.0 mi Calm Calm - N/A   Overcast
5:53 AM 55.9 °F 55.0 °F 97% 30.07 in 9.0 mi SW 3.5 mph - N/A   Mostly Cloudy
6:53 AM 57.0 °F 55.0 °F 93% 30.08 in 10.0 mi West 8.1 mph - N/A   Overcast
7:53 AM 61.0 °F 57.0 °F 87% 30.09 in 10.0 mi SW 4.6 mph - N/A   Mostly Cloudy
8:53 AM 64.9 °F 55.0 °F 70% 30.11 in 10.0 mi Variable 3.5 mph - N/A   Clear
9:53 AM 61.0 °F 55.9 °F 83% 30.14 in 10.0 mi North 4.6 mph - N/A   Clear
10:53 AM 66.0 °F 57.0 °F 73% 30.14 in 10.0 mi NE 3.5 mph - N/A   Clear
11:53 AM 64.0 °F 55.0 °F 73% 30.16 in 10.0 mi NNE 4.6 mph - N/A   Clear
12:53 PM 66.9 °F 55.0 °F 66% 30.16 in 10.0 mi Variable 4.6 mph - N/A   Mostly Cloudy
1:53 PM 69.1 °F 55.0 °F 61% 30.16 in 10.0 mi North 5.8 mph - N/A   Clear
2:53 PM 68.0 °F 55.0 °F 63% 30.17 in 10.0 mi North 5.8 mph - N/A   Mostly Cloudy
3:53 PM 68.0 °F 55.0 °F 63% 30.17 in 10.0 mi North 5.8 mph - N/A   Overcast
4:53 PM 69.1 °F 55.9 °F 63% 30.15 in 10.0 mi North 6.9 mph - N/A   Overcast
5:53 PM 66.0 °F 55.9 °F 70% 30.14 in 10.0 mi NNW 8.1 mph - N/A   Mostly Cloudy
6:53 PM 64.9 °F 55.9 °F 73% 30.14 in 10.0 mi WNW 4.6 mph - N/A   Scattered Clouds
7:53 PM 62.1 °F 55.9 °F 80% 30.14 in 10.0 mi West 5.8 mph - N/A   Mostly Cloudy
8:53 PM 60.1 °F 55.9 °F 86% 30.14 in 10.0 mi Calm Calm - N/A   Clear
9:53 PM 59.0 °F 55.9 °F 90% 30.13 in 10.0 mi SW 4.6 mph - N/A   Partly Cloudy
10:53 PM 57.9 °F 55.0 °F 90% 30.12 in 10.0 mi SW 5.8 mph - N/A   Clear
11:53 PM 55.9 °F 54.0 °F 93% 30.12 in 10.0 mi Calm Calm - N/A   Clear